Regional Weather Roundup
Issued by NWS

Home | Current Version | Previous Version | Text Only | Print | Product List | Glossary On
Versions: 1 2 3 4 5 6 7 8 9 10 11 12 13 14 15 16 17 18 19 20 21 22 23 24 25 26 27 28 29 30 31 32 33 34 35 36 37 38 39 40 41 42 43 44 45 46 47 48 49 50
000
ASUS46 KLOX 050812
RWRCA

SOUTHERN CALIFORNIA WEATHER ROUNDUP
NATIONAL WEATHER SERVICE OXNARD CALIFORNIA
1200 AM PST THU MAR 05 2015

NOTE: "FAIR" INDICATES FEW OR NO CLOUDS BELOW 12,000 FEET WITH NO
SIGNIFICANT WEATHER AND/OR OBSTRUCTIONS TO VISIBILITY.

  -  STATIONS PRECEEDED BY AN ASTERISK (*) ARE NOT NWS OR FAA
     STATIONS AND ARE NOT SUBJECT TO NWS AND FAA QUALITY CONTROL.

CAZ041-042-087-050900-
LA AND ORANGE COUNTY COASTAL AREAS


CITY           SKY/WX    TMP DP  RH WIND       PRES   REMARKS
L.A. DOWNTOWN  CLEAR     57  39  51 CALM      30.16R
L.A. AIRPORT   PTCLDY    56  47  71 VRB5      30.16S
LONG BEACH     CLEAR     55  47  74 CALM      30.16S

CITY           SKY/WX    TMP DP  RH WIND       PRES   REMARKS
AVALON           N/A     48 N/A N/A MISG        N/A
FULLERTON      CLEAR     54  39  57 E3        30.16R
*GETTY CENTER    N/A     59  14  17 VRB12       N/A
HAWTHORNE      CLEAR     56  47  71 CALM      30.16S
*LEO CARRILLO    N/A     62  20  20 N6G17       N/A
*LOS ALAMITOS  FAIR      51  44  78 NE2       30.16R
*REDONDO BEACH   N/A     52  46  79 CALM      30.16S
SANTA ANA      CLEAR     58  44  60 CALM      30.16S
STA MONICA APT CLEAR     54  40  59 E3        30.16S
*STA MON PIER    N/A     57  43  59 S1        30.16R
*UCLA            N/A     57  19  23 NE3       30.14R

$$

CAZ547-548-048-050900-
LA COUNTY VALLEYS AND INLAND EMPIRE


CITY           SKY/WX    TMP DP  RH WIND       PRES   REMARKS
BURBANK        CLEAR     49  29  46 N3        30.16R
VAN NUYS       CLEAR     52  28  39 CALM      30.16S

CITY           SKY/WX    TMP DP  RH WIND       PRES   REMARKS
CORONA AIRPORT SUNNY     37  33  85 CALM      30.18R
*CHATSWORTH      N/A     59  24  26 CALM      30.18R
CHINO          CLEAR     45  38  76 CALM      30.18S
MARCH AFB      CLEAR     40  26  57 W3        30.17S
*NORTHRIDGE      N/A     52  23  32 S1          N/A
ONTARIO        MOCLDY    50  37  61 CALM      30.16S
*PASADENA        N/A     52  39  62 E2          N/A
RIVERSIDE      CLEAR     50  28  42 NE5       30.17S
SAN BERNARDINO NOT AVBL
*SAN RAFAEL HI   N/A     57  11  16 SW6         N/A
*SAUGUS          N/A     51  21  31 N8          N/A
*WHITEMAN AP   NOT AVBL
*WHITTIER HILL   N/A     57  34  41 NE3         N/A
*WOODLAND HILL   N/A     46  28  49 SE1         N/A

$$

CAZ054-055-050900-
LA AND SAN BERNARDINO COUNTY MOUNTAINS


CITY           SKY/WX    TMP DP  RH WIND       PRES   REMARKS
*BIG BEAR AIRP SUNNY     21  10  63 CALM      30.28S
MT WILSON NWS    N/A     39  -2  17 N2          N/A
SANDBERG       CLEAR     42  16  34 NE10      30.24S

$$

CAZ028-029-059-060-099-050900-
ANTELOPE VALLEY AND SURROUNDING AREAS


CITY           SKY/WX    TMP DP  RH WIND       PRES   REMARKS
LANCASTER      CLEAR     32  23  69 SW5       30.26S WCI  27
PALMDALE       CLEAR     33  20  58 W3        30.25S
*POPPY PARK      N/A     33  22  64 NW2         N/A

CITY           SKY/WX    TMP DP  RH WIND       PRES   REMARKS
29 PALMS       CLEAR     47  18  31 W12       30.31S
BARSTOW/DAGGET CLEAR     41  20  43 W8        30.26R
BISHOP         PTCLDY    28   2  32 NW6       30.28R WCI  22
CHINA LAKE     CLEAR     39  27  62 SW9       30.26R WCI  33
EDWARDS AFB    CLEAR     36  21  54 N1        30.24R
MOJAVE         FAIR      39  25  56 NW7       30.26S WCI  34
NEEDLES        NOT AVBL
VICTORVILLE      N/A     34  14  44 CALM      30.25S

$$

CAZ039-040-050900-
VENTURA AND SANTA BARBARA COUNTY COAST


CITY           SKY/WX    TMP DP  RH WIND       PRES   REMARKS
CAMARILLO      CLEAR     47  40  76 CALM      30.16S
OXNARD AIRPORT CLEAR     50  37  61 E5        30.17S
*POINT MUGU    CLEAR     50  41  71 N9        30.17S
SBA APT/GOLETA CLEAR     50  41  71 CALM      30.16S
*SANTA BARBARA   N/A     53  40  62 CALM      30.24S
*VENTURA         N/A     49  30  47 NE3       30.20S

$$

CAZ044-045-050900-
VENTURA COUNTY VALLEYS


CITY           SKY/WX    TMP DP  RH WIND       PRES   REMARKS
*SIMI VALLEY     N/A     54  25  32 CALM      30.15S
*OJAI            N/A     38  34  85 CALM      30.15R
*FILLMORE        N/A     54  30  40 NE3       30.07S

$$

CAZ053-050900-
VENTURA COUNTY MOUNTAINS


CITY           SKY/WX    TMP DP  RH WIND       PRES   REMARKS
*LOCKWOOD VLY    N/A     34  12  40 MISG        N/A
*ROSE VALLEY     N/A     25  27 100 MISG        N/A

$$

CAZ034-035-036-050900-
CENTRAL COAST AND SANTA YNEZ VALLEY


CITY           SKY/WX    TMP DP  RH WIND       PRES   REMARKS
SAN LUIS OBISP CLEAR     45  41  86 SE3       30.19S
SANTA MARIA    CLEAR     46  39  76 SE3       30.19S

CITY           SKY/WX    TMP DP  RH WIND       PRES   REMARKS
*CAL POLY SLO    N/A     46  41  81 CALM        N/A
*LOMPOC        CLEAR     43  34  70 E7        30.19S
*PISMO BEACH     N/A     48  41  77 NE6       30.19S
*SANTA YNEZ    FAIR      43  36  75 E8        30.19S

$$

CAZ037-038-051-050900-
SAN LUIS OBISPO COUNTY INTERIOR AND CUYAMA VALLEY


CITY           SKY/WX    TMP DP  RH WIND       PRES   REMARKS
*CUYAMA          N/A     40  33  77 CALM      30.24S
PASO ROBLES    CLEAR     45  39  79 E5        30.22S

$$

CAZ032-033-061-050900-
SOUTHERN DESERTS


CITY           SKY/WX    TMP DP  RH WIND       PRES   REMARKS
BLYTHE         CLEAR     52  35  52 N9        30.19S
IMPERIAL       CLEAR     51  35  54 CALM      30.18R
PALM SPRINGS   CLEAR     58  21  24 W6        30.21S
THERMAL        CLEAR     44  31  60 NW3       30.18R

$$

ELSEWHERE ACROSS THE WESTERN UNITED STATES AND MEXICO


CITY           SKY/WX    TMP DP  RH WIND       PRES   REMARKS
DENVER, CO     CLEAR      3  -3  76 S12       30.17F WCI -13
GRAND CANYON,  PTCLDY    11   9  92 CALM      30.30R
HONOLULU, HI   LGT RAIN  68  66  94 NW6       30.03R FOG
KAHULUI, MAUI  MOCLDY    72  64  78 NE13      29.99R
LAKE TAHOE, CA CLEAR     25  17  72 CALM      30.29S
LAS VEGAS, NV  CLEAR     50  23  34 S5        30.26R
MAMMOTH LAKES, FAIR      19   7  58 CALM      30.31S
MEXICO CITY, M PTCLDY    63  41  45 NW2       30.26F
PHOENIX, AZ    CLEAR     55  37  50 CALM      30.16R
PORTLAND, OR   CLEAR     39  31  72 CALM      30.30R
RENO, NV       CLEAR     34  19  54 NW3       30.32R
SALT LAKE CITY CLEAR     29  18  63 SE9       30.36R WCI  20
SAN DIEGO, CA  CLEAR     57  47  69 CALM      30.18R
SAN FRANCISCO, CLEAR     53  40  61 CALM      30.23R
SAN JOSE, CA   CLEAR     50  36  58 CALM      30.23R
SEATTLE, WA    MOCLDY    42  24  49 CALM      30.30S
TIJUANA, MEX   CLEAR     54  41  62 E5        30.19R

$$

STATION/POSITION TIME  TEMP    WIND        PRES    VSBY  WAVE
                       AIR SEA DIR/SP/G                  HT/PER
                 (UTC) (F)     (DEG/KT/KT) (MB)    (MI)  (FT/S)
POINT ARGUELLO B NOT AVBL
WEST SANTA BARBA 0800   59 59  340/  4/  4 1021.1F         4/16
POINT CONCEPTION NOT AVBL
EAST SANTA BARBA NOT AVBL
SANTA MONICA BAY 0800   60 62  320/ 14/ 16 1021.1F         2/15



USA.gov is the U.S. government's official web portal to all federal, state and local government web resources and services.